Location: Malvern Link
(52.1333°N, 2.3000°W)
Time: 16:36:38
(UTC+00:00)

Cosmos 1634 Rocket - Pass Details

Date: 02 December 2021
Orbit: 959 x 993 km, 82.9° (Epoch: 23 January)

Event Time Altitude Azimuth Distance (km) Brightness Sun altitude
Rises 04:53:47 0° 350° (N) 3,715 6.9 -27.0°
Reaches altitude 10° 04:56:20 10° 351° (N) 2,758 6.2 -26.6°
Maximum altitude 05:02:41 79° 79° (E) 1,005 4.0 -25.7°
Drops below altitude 10° 05:08:55 10° 166° (SSE) 2,716 6.5 -24.7°
Sets 05:11:25 0° 168° (SSE) 3,655 7.2 -24.3°
